logo
Rechercher aéroport 
image banner adimage banner adimage banner ad
image banner ad

CJO3 - Jenkins Cove

Situé à Kars, Canada

ICAO - , IATA -

Données fournies par Airmate  

Information générale

Coordonnées: N45°35'38" W65°57'25"
Élévation : 20 feet MSL.
Variation magnétique : -17.4167° East
Voir autres Aéroports à New Brunswick

Données opérationnelles

Special qualification required
Heure actuelle UTC:
Heure actuelle locale:
Météo à : CYSJ - Saint John ( 31 km )
METAR: CYSJ 162300Z 05007KT 15SM SCT160 BKN270 21/12 A3010 RMK AC3CI3 SLP195 DENSITY ALT 1000FT
TAF: TAF CYSJ 161740Z 1618/1706 09010G20KT P6SM SCT025 BKN150 BECMG 1623/1701 05010KT FM170500 03010G20KT P6SM OVC150 RMK NXT FCST BY 170000Z
Voir NOTAMs / SUP AIP / TFR affectant cet aéroport [VIEW]
Fréquences de communication: [VIEW]

Pistes:

Identifiant RWYQFULongueur (ft)Largeur (ft)SurfaceLDA (ft)
W00WATER

Coordonnées de l'aéroport

Adresse: Kars Canada

Vue satellite de CJO3